User: anonymous   Login
Location: Poughquag
(41.6090°N, 73.6820°W)
Time: 02:08:41
(UTC-04:00)
Language:

SR - Orbit

View from above orbital plane
View from above orbital plane
View from above satellite
View from above satellite

Ground track
Ground track

The orbit data is extracted from the following two-line orbital elements,

1    46U 60007B   19287.20139692  .00000034  00000-0  29694-4 0  9993
2    46  66.6920 354.6024 0215474 314.0197  44.3327 14.49249080103270
Epoch (UTC): 14 October 2019 04:50:00
Eccentricity: 0.0215474
inclination: 66.6920°
perigee height: 575 km
apogee height: 881 km
right ascension of ascending node: 354.6024°
argument of perigee: 314.0197°
revolutions per day: 14.49249080
mean anomaly at epoch: 44.3327°
orbit number at epoch: 10327

The dashed part of the orbit path shows where the satellite is in the earth's shadow,  

DLR